Location: Newark
(35.6799°N, 139.7636°E)
Time: 19:36:41
(UTC+00:00)

Courier 1B - Pass Details

Date: 15 December 2019
Orbit: 962 x 1209 km, 28.3° (Epoch: 28 January)

Event Time Altitude Azimuth Distance (km) Brightness Sun altitude
Rises 10:18:33 0° 242° (WSW) 3,759 11.5 -33.6°
Reaches altitude 10° 10:21:20 10° 235° (SW) 2,843 10.6 -34.2°
Enters shadow 10:26:19 37° 195° (SSW) 1,615 8.7 -35.2°
